Springfield, OH

8:39 AM EDT on August 17, 2017 (GMT -0400)
Springfield-Beckley Municipal

Weather History for KSGH - May, 2013

Change the Weather History Date:

Monday, May 27, 2013

  Actual Average (KFFO) Record (KFFO)
Temperature  
Mean Temperature 62 °F -  
Max Temperature 75 °F 71 °F 92 °F (2012)
Min Temperature 50 °F 51 °F 37 °F (1999)
Degree Days  
Heating Degree Days 2    
Growing Degree Days 12 (Base 50)    
Moisture  
Dew Point 51 °F    
Average Humidity 71    
Maximum Humidity 100    
Minimum Humidity 51    
Precipitation  
Precipitation 0.14 in - - ()
Sea Level Pressure  
Sea Level Pressure 30.14 in    
Wind  
Wind Speed 8 mph (ESE)    
Max Wind Speed 17 mph    
Max Gust Speed 23 mph    
Visibility 8 miles    
Events Rain    
Averages and records for this station are not official NWS values.
T = Trace of Precipitation, MM = Missing Value Source: NWS Daily Summary

Daily Weather History Graph

Daily Weather History Graph

Search for Another Location

Airport or City:

Trip Planner

Search our weather history database for the weather conditions in past years. The results will help you decide how hot, cold, wet, or windy it might be!

Date:

Astronomy

May. 27, 2013 Rise Set
Actual Time 6:11 AM EDT 8:54 PM EDT
Civil Twilight 5:39 AM EDT 9:25 PM EDT
Nautical Twilight 5:00 AM EDT 10:05 PM EDT
Astronomical Twilight 4:15 AM EDT 10:50 PM EDT
Moon 11:32 PM EDT (5/27) 8:47 AM EDT (5/27)
Length of Visible Light 15h 46m
Length of Day
14h 42m
Waning Gibbous, 91% of the Moon is Illuminated
May 27
Waning Gibbous
May 31
Last Quarter
Jun 8
New
Jun 16
First Quarter
Jun 23
Full

Hourly Weather History & Observations

Time (EDT) Temp. Dew Point Humidity Pressure Visibility Wind Dir Wind Speed Gust Speed Precip Events Conditions
12:56 AM 54.0 °F 41.9 °F 64% 30.25 in 10.0 mi ENE 3.5 mph - N/A   Partly Cloudy
1:56 AM 54.9 °F 43.0 °F 64% 30.24 in 9.0 mi Calm Calm - N/A   Clear
2:56 AM 54.0 °F 41.0 °F 62% 30.22 in 9.0 mi East 5.8 mph - N/A   Mostly Cloudy
3:56 AM 54.9 °F 38.8 °F 55% 30.22 in 9.0 mi East 6.9 mph - N/A   Mostly Cloudy
4:56 AM 54.0 °F 43.9 °F 69% 30.22 in 9.0 mi ESE 5.8 mph - 0.00 in   Overcast
5:56 AM 52.9 °F 43.9 °F 71% 30.23 in 7.0 mi SE 5.8 mph - 0.00 in Rain Light Rain
6:56 AM 50.9 °F 46.9 °F 86% 30.24 in 6.0 mi East 5.8 mph - 0.01 in Rain Light Rain
7:56 AM 50.9 °F 47.8 °F 89% 30.23 in 7.0 mi ESE 8.1 mph - 0.02 in Rain Light Rain
8:32 AM 51.8 °F 48.2 °F 88% 30.24 in 1.8 mi SE 10.4 mph - 0.03 in Rain Rain
8:56 AM 50.0 °F 50.0 °F 100% 30.23 in 1.2 mi SE 9.2 mph - 0.10 in Rain Light Rain
9:04 AM 50.0 °F 50.0 °F 100% 30.23 in 2.0 mi ESE 8.1 mph - 0.01 in Rain Light Rain
9:15 AM 50.0 °F 50.0 °F 100% 30.23 in 6.0 mi ESE 9.2 mph - 0.01 in Rain Light Rain
9:56 AM 50.9 °F 50.9 °F 100% 30.23 in 6.0 mi ESE 10.4 mph - 0.01 in Rain Light Rain
10:56 AM 55.9 °F 52.0 °F 87% 30.21 in 8.0 mi ESE 13.8 mph - 0.00 in   Partly Cloudy
11:56 AM 61.0 °F 52.0 °F 72% 30.18 in 8.0 mi ESE 16.1 mph 23.0 mph N/A   Clear
12:56 PM 64.9 °F 52.9 °F 65% 30.16 in 8.0 mi SE 15.0 mph - N/A   Clear
1:56 PM 68.0 °F 52.9 °F 58% 30.13 in 9.0 mi ESE 15.0 mph - N/A   Clear
2:56 PM 72.0 °F 54.0 °F 53% 30.10 in 9.0 mi SE 15.0 mph 23.0 mph N/A   Clear
3:56 PM 72.0 °F 54.0 °F 53% 30.08 in 9.0 mi ESE 11.5 mph 19.6 mph N/A   Partly Cloudy
4:56 PM 74.8 °F 55.9 °F 52% 30.05 in 9.0 mi SE 11.5 mph - N/A   Clear
5:56 PM 75.9 °F 56.8 °F 51% 30.00 in 9.0 mi SE 13.8 mph 20.7 mph N/A   Clear
6:56 PM 75.9 °F 56.8 °F 51% 30.00 in 8.0 mi SE 17.3 mph 21.9 mph N/A   Clear
7:56 PM 72.9 °F 57.9 °F 59% 29.99 in 9.0 mi SE 15.0 mph - N/A   Scattered Clouds
8:56 PM 70.9 °F 57.9 °F 63% 29.99 in 9.0 mi SE 10.4 mph - N/A   Mostly Cloudy
9:56 PM 68.9 °F 59.0 °F 71% 29.99 in 9.0 mi SE 9.2 mph - N/A   Partly Cloudy
10:56 PM 68.9 °F 59.0 °F 71% 29.99 in 9.0 mi SE 10.4 mph - N/A   Overcast
11:56 PM 68.9 °F 57.9 °F 68% 29.99 in 10.0 mi SSE 9.2 mph - N/A   Overcast